Aeroporto :
LOGIN :

Iscrizione | Disclaimer

   EN    FR    IT 

 










Sommario :    VFR   VFR Marginale   IFR   IFR Intensivo   IFR Molto Intensivo
Visibilità : 
Base nubi : 
>= 8 km
>= 3000ft
5 / 8 km
1000 / 3000 ft
1500m / 5 km
500 / 1000 ft
800 / 1500m
200 / 500 ft
< 800m
< 200 ft
Simboli :   Temporali  Nebbia  Neve Forte  Precipitazioni Forti  Vento > 20 kt
SIGMETs :   Varie  Temporali  Ghiacco  Turbolenza  Onda orograficha  Ceneri Vulcaniche






- Altitudine del aeroporto : 353 ft
- Codice IATA : LIN


LIML - Milano Linate

ULTIMO METAR :
  • 151720Z 19004KT 150V220 CAVOK 30/19 Q1010 NOSIG

METARs OBSOLETI :
  • 151650Z 11004KT 070V180 CAVOK 30/19 Q1010 NOSIG
  • 151620Z 14005KT 110V200 CAVOK 31/19 Q1011 NOSIG
  • 151550Z 17005KT 110V210 CAVOK 31/19 Q1011 NOSIG
  • 151520Z VRB03KT CAVOK 31/19 Q1011 NOSIG
  • 151450Z 17006KT 140V230 CAVOK 31/19 Q1011 NOSIG
  • 151420Z 09005KT 050V160 CAVOK 30/19 Q1011 NOSIG

TAF TAF LIML
Valido dal 15 a 12 ore il 16 a 12 ore UTC


151100Z 1512/1612 VRB05KT 9999 SCT040
TEMPO 1521/1608 4000 TSRA



MetMap, La meteo Aeronautica in un colpo d'occhio ! - Copyright ORBIFLY Dicembre 2007 - Disclaimer

ORBIFLY MET'MAP TEAM :

Programmazione e sviluppo : Alexandra Zaïnal
Concezione : Baudouin d'Aumeries
Aiuto per la programmazione : Marc-Olivier Méhu
Supporto tecnico e logistico : Manuel Goepfert
Aiuto per la traduzione : Arnaldo La Scala

Contatto : metmap@orbifly.com




FONTI E CREDITI :

   NOAA